Year,Month,Day,Hour,Minute,Value (Times are PST for temperature in C)
2015,09,18,00,00,13.20
2015,09,18,00,01,13.20
2015,09,18,00,02,13.20
2015,09,18,00,03,13.20
2015,09,18,00,04,13.20
2015,09,18,00,05,13.20
2015,09,18,00,06,13.20
2015,09,18,00,07,13.20
2015,09,18,00,08,13.20
2015,09,18,00,09,13.20
2015,09,18,00,10,13.20
2015,09,18,00,11,13.20
2015,09,18,00,12,13.20
2015,09,18,00,13,13.10
2015,09,18,00,14,13.10
2015,09,18,00,15,13.10
2015,09,18,00,16,13.10
2015,09,18,00,17,13.10
2015,09,18,00,18,13.10
2015,09,18,00,19,13.10
2015,09,18,00,20,13.10
2015,09,18,00,21,13.10
2015,09,18,00,22,13.20
2015,09,18,00,23,13.20
2015,09,18,00,24,13.20
2015,09,18,00,25,13.20
2015,09,18,00,26,13.20
2015,09,18,00,27,13.10
2015,09,18,00,28,13.10
2015,09,18,00,29,13.10
2015,09,18,00,30,13.10
2015,09,18,00,31,13.10
2015,09,18,00,32,13.10
2015,09,18,00,33,13.10
2015,09,18,00,34,13.10
2015,09,18,00,35,13.10
2015,09,18,00,36,13.10
2015,09,18,00,37,13.10
2015,09,18,00,38,13.10
2015,09,18,00,39,13.10
2015,09,18,00,40,13.10
2015,09,18,00,41,13.10
2015,09,18,00,42,13.10
2015,09,18,00,43,13.10
2015,09,18,00,44,13.20
2015,09,18,00,45,13.20
2015,09,18,00,46,13.20
2015,09,18,00,47,13.20
2015,09,18,00,48,13.20
2015,09,18,00,49,13.10
2015,09,18,00,50,13.10
2015,09,18,00,51,13.10
2015,09,18,00,52,13.10
2015,09,18,00,53,13.10
2015,09,18,00,54,13.10
2015,09,18,00,55,13.10
2015,09,18,00,56,13.10
2015,09,18,00,57,13.20
2015,09,18,00,58,13.20
2015,09,18,00,59,13.20
2015,09,18,01,00,13.20
2015,09,18,01,01,13.20
2015,09,18,01,02,13.20
2015,09,18,01,03,13.20
2015,09,18,01,04,13.20
2015,09,18,01,05,13.20
2015,09,18,01,06,13.20
2015,09,18,01,07,13.20
2015,09,18,01,08,13.20
2015,09,18,01,09,13.20
2015,09,18,01,10,13.20
2015,09,18,01,11,13.20
2015,09,18,01,12,13.20
2015,09,18,01,13,13.20
2015,09,18,01,14,13.20
2015,09,18,01,15,13.20
2015,09,18,01,16,13.20
2015,09,18,01,17,13.20
2015,09,18,01,18,13.20
2015,09,18,01,19,13.20
2015,09,18,01,20,13.20
2015,09,18,01,21,13.20
2015,09,18,01,22,13.20
2015,09,18,01,23,13.10
2015,09,18,01,24,13.10
2015,09,18,01,25,13.10
2015,09,18,01,26,13.10
2015,09,18,01,27,13.10
2015,09,18,01,28,13.10
2015,09,18,01,29,13.10
2015,09,18,01,30,13.10
2015,09,18,01,31,13.10
2015,09,18,01,32,13.10
2015,09,18,01,33,13.10
2015,09,18,01,34,13.10
2015,09,18,01,35,13.10
2015,09,18,01,36,13.10
2015,09,18,01,37,13.10
2015,09,18,01,38,13.10
2015,09,18,01,39,13.10
2015,09,18,01,40,13.00
2015,09,18,01,41,13.00
2015,09,18,01,42,13.00
2015,09,18,01,43,13.00
2015,09,18,01,44,13.00
2015,09,18,01,45,13.00
2015,09,18,01,46,13.00
2015,09,18,01,47,13.00
2015,09,18,01,48,13.00
2015,09,18,01,49,13.00
2015,09,18,01,50,13.00
2015,09,18,01,51,13.00
2015,09,18,01,52,12.90
2015,09,18,01,53,12.90
2015,09,18,01,54,12.90
2015,09,18,01,55,12.90
2015,09,18,01,56,12.90
2015,09,18,01,57,12.90
2015,09,18,01,58,12.90
2015,09,18,01,59,12.90
2015,09,18,02,00,12.90
2015,09,18,02,01,12.90
2015,09,18,02,02,12.90
2015,09,18,02,03,12.90
2015,09,18,02,04,12.90
2015,09,18,02,05,12.90
2015,09,18,02,06,12.90
2015,09,18,02,07,12.90
2015,09,18,02,08,12.90
2015,09,18,02,09,12.90
2015,09,18,02,10,12.90
2015,09,18,02,11,12.90
2015,09,18,02,12,12.90
2015,09,18,02,13,12.80
2015,09,18,02,14,12.80
2015,09,18,02,15,12.80
2015,09,18,02,16,12.80
2015,09,18,02,17,12.80
2015,09,18,02,18,12.80
2015,09,18,02,19,12.80
2015,09,18,02,20,12.80
2015,09,18,02,21,12.80
2015,09,18,02,22,12.80
2015,09,18,02,23,12.80
2015,09,18,02,24,12.80
2015,09,18,02,25,12.80
2015,09,18,02,26,12.80
2015,09,18,02,27,12.80
2015,09,18,02,28,12.80
2015,09,18,02,29,12.80
2015,09,18,02,30,12.80
2015,09,18,02,31,12.70
2015,09,18,02,32,12.80
2015,09,18,02,33,12.80
2015,09,18,02,34,12.70
2015,09,18,02,35,12.80
2015,09,18,02,36,12.80
2015,09,18,02,37,12.80
2015,09,18,02,38,12.80
2015,09,18,02,39,12.80
2015,09,18,02,40,12.80
2015,09,18,02,41,12.80
2015,09,18,02,42,12.80
2015,09,18,02,43,12.80
2015,09,18,02,44,12.70
2015,09,18,02,45,12.70
2015,09,18,02,46,12.70
2015,09,18,02,47,12.70
2015,09,18,02,48,12.70
2015,09,18,02,49,12.70
2015,09,18,02,50,12.70
2015,09,18,02,51,12.70
2015,09,18,02,52,12.70
2015,09,18,02,53,12.70
2015,09,18,02,54,12.70
2015,09,18,02,55,12.70
2015,09,18,02,56,12.70
2015,09,18,02,57,12.70
2015,09,18,02,58,12.70
2015,09,18,02,59,12.70
2015,09,18,03,00,12.70
2015,09,18,03,01,12.70
2015,09,18,03,02,12.70
2015,09,18,03,03,12.70
2015,09,18,03,04,12.70
2015,09,18,03,05,12.70
2015,09,18,03,06,12.70
2015,09,18,03,07,12.70
2015,09,18,03,08,12.70
2015,09,18,03,09,12.70
2015,09,18,03,10,12.70
2015,09,18,03,11,12.70
2015,09,18,03,12,12.70
2015,09,18,03,13,12.70
2015,09,18,03,14,12.70
2015,09,18,03,15,12.70
2015,09,18,03,16,12.70
2015,09,18,03,17,12.70
2015,09,18,03,18,12.70
2015,09,18,03,19,12.70
2015,09,18,03,20,12.70
2015,09,18,03,21,12.70
2015,09,18,03,22,12.70
2015,09,18,03,23,12.70
2015,09,18,03,24,12.70
2015,09,18,03,25,12.70
2015,09,18,03,26,12.70
2015,09,18,03,27,12.70
2015,09,18,03,28,12.70
2015,09,18,03,29,12.70
2015,09,18,03,30,12.70
2015,09,18,03,31,12.70
2015,09,18,03,32,12.70
2015,09,18,03,33,12.70
2015,09,18,03,34,12.70
2015,09,18,03,35,12.70
2015,09,18,03,36,12.70
2015,09,18,03,37,12.70
2015,09,18,03,38,12.70
2015,09,18,03,39,12.70
2015,09,18,03,40,12.70
2015,09,18,03,41,12.70
2015,09,18,03,42,12.70
2015,09,18,03,43,12.70
2015,09,18,03,44,12.70
2015,09,18,03,45,12.70
2015,09,18,03,46,12.70
2015,09,18,03,47,12.70
2015,09,18,03,48,12.70
2015,09,18,03,49,12.70
2015,09,18,03,50,12.70
2015,09,18,03,51,12.70
2015,09,18,03,52,12.70
2015,09,18,03,53,12.70
2015,09,18,03,54,12.80
2015,09,18,03,55,12.80
2015,09,18,03,56,12.80
2015,09,18,03,57,12.80
2015,09,18,03,58,12.80
2015,09,18,03,59,12.80
2015,09,18,04,00,12.80
2015,09,18,04,01,12.80
2015,09,18,04,02,12.80
2015,09,18,04,03,12.80
2015,09,18,04,04,12.80
2015,09,18,04,05,12.80
2015,09,18,04,06,12.80
2015,09,18,05,02,12.80
2015,09,18,05,03,12.80
2015,09,18,05,04,12.80
2015,09,18,05,05,12.80
2015,09,18,05,06,12.80
2015,09,18,05,07,12.80
2015,09,18,05,08,12.80
2015,09,18,05,09,12.80
2015,09,18,05,10,12.80
2015,09,18,05,11,12.90
2015,09,18,05,12,12.90
2015,09,18,05,13,12.80
2015,09,18,05,14,12.90
2015,09,18,05,15,12.90
2015,09,18,05,16,12.90
2015,09,18,05,17,12.90
2015,09,18,05,18,12.90
2015,09,18,05,19,12.90
2015,09,18,05,20,12.90
2015,09,18,05,21,12.90
2015,09,18,05,22,12.90
2015,09,18,05,23,12.90
2015,09,18,05,24,12.90
2015,09,18,05,25,12.90
2015,09,18,05,26,12.90
2015,09,18,05,27,12.90
2015,09,18,05,28,12.90
2015,09,18,05,29,12.90
2015,09,18,05,30,12.90
2015,09,18,05,31,12.90
2015,09,18,05,32,12.90
2015,09,18,05,33,12.90
2015,09,18,05,34,12.90
2015,09,18,05,35,12.90
2015,09,18,05,36,12.90
2015,09,18,05,37,12.90
2015,09,18,05,38,12.90
2015,09,18,05,39,12.90
2015,09,18,05,40,12.90
2015,09,18,05,41,12.90
2015,09,18,05,42,12.90
2015,09,18,05,43,12.90
2015,09,18,05,44,12.90
2015,09,18,05,45,12.90
2015,09,18,05,46,12.90
2015,09,18,05,47,12.90
2015,09,18,05,48,12.90
2015,09,18,05,49,12.90
2015,09,18,05,50,12.90
2015,09,18,05,51,12.90
2015,09,18,05,52,12.90
2015,09,18,05,53,12.90
2015,09,18,05,54,12.90
2015,09,18,05,55,12.90
2015,09,18,05,56,12.90
2015,09,18,05,57,12.80
2015,09,18,05,58,12.80
2015,09,18,05,59,12.80
2015,09,18,06,00,12.80
2015,09,18,06,01,12.80
2015,09,18,06,02,12.80
2015,09,18,06,03,12.80
2015,09,18,06,04,12.80
2015,09,18,06,05,12.80
2015,09,18,06,06,12.80
2015,09,18,06,07,12.80
2015,09,18,06,08,12.80
2015,09,18,06,09,12.80
2015,09,18,06,10,12.80
2015,09,18,06,11,12.80
2015,09,18,06,12,12.80
2015,09,18,06,13,12.80
2015,09,18,06,14,12.80
2015,09,18,06,15,12.80
2015,09,18,06,16,12.80
2015,09,18,06,17,12.80
2015,09,18,06,18,12.80
2015,09,18,06,19,12.80
2015,09,18,06,20,12.80
2015,09,18,06,21,12.80
2015,09,18,06,22,12.80
2015,09,18,06,23,12.80
2015,09,18,06,24,12.80
2015,09,18,06,25,12.80
2015,09,18,06,26,12.80
2015,09,18,06,27,12.80
2015,09,18,06,28,12.80
2015,09,18,06,29,12.80
2015,09,18,06,30,12.80
2015,09,18,06,31,12.80
2015,09,18,06,32,12.80
2015,09,18,06,33,12.80
2015,09,18,06,34,12.80
2015,09,18,06,35,12.70
2015,09,18,06,36,12.70
2015,09,18,06,37,12.70
2015,09,18,06,38,12.70
2015,09,18,06,39,12.70
2015,09,18,06,40,12.70
2015,09,18,06,41,12.80
2015,09,18,06,42,12.80
2015,09,18,06,43,12.70
2015,09,18,06,44,12.80
2015,09,18,06,45,12.70
2015,09,18,06,46,12.80
2015,09,18,06,47,12.80
2015,09,18,06,48,12.70
2015,09,18,06,49,12.80
2015,09,18,06,50,12.80
2015,09,18,06,51,12.80
2015,09,18,06,52,12.80
2015,09,18,06,53,12.80
2015,09,18,06,54,12.80
2015,09,18,06,55,12.70
2015,09,18,06,56,12.80
2015,09,18,06,57,12.70
2015,09,18,06,58,12.70
2015,09,18,06,59,12.70
2015,09,18,07,00,12.70
2015,09,18,07,01,12.70
2015,09,18,07,02,12.80
2015,09,18,07,03,12.70
2015,09,18,07,04,12.70
2015,09,18,07,05,12.70
2015,09,18,07,06,12.70
2015,09,18,07,07,12.70
2015,09,18,07,08,12.70
2015,09,18,07,09,12.70
2015,09,18,07,10,12.70
2015,09,18,07,11,12.70
2015,09,18,07,12,12.70
2015,09,18,07,13,12.70
2015,09,18,07,14,12.70
2015,09,18,07,15,12.70
2015,09,18,07,16,12.70
2015,09,18,07,17,12.70
2015,09,18,07,18,12.70
2015,09,18,07,19,12.80
2015,09,18,07,20,12.80
2015,09,18,07,21,12.80
2015,09,18,07,22,12.80
2015,09,18,07,23,12.80
2015,09,18,07,24,12.80
2015,09,18,07,25,12.80
2015,09,18,07,26,12.80
2015,09,18,07,27,12.80
2015,09,18,07,28,12.80
2015,09,18,07,29,12.80
2015,09,18,07,30,12.80
2015,09,18,07,31,12.80
2015,09,18,07,32,12.80
2015,09,18,07,33,12.80
2015,09,18,07,34,12.80
2015,09,18,07,35,12.80
2015,09,18,07,36,12.80
2015,09,18,07,37,12.80
2015,09,18,07,38,12.80
2015,09,18,07,39,12.80
2015,09,18,07,40,12.80
2015,09,18,07,41,12.80
2015,09,18,07,42,12.80
2015,09,18,07,43,12.80
2015,09,18,07,44,12.80
2015,09,18,07,45,12.80
2015,09,18,07,46,12.80
2015,09,18,07,47,12.80
2015,09,18,07,48,12.80
2015,09,18,07,49,12.80
2015,09,18,07,50,12.80
2015,09,18,07,51,12.90
2015,09,18,07,52,12.90
2015,09,18,07,53,12.90
2015,09,18,07,54,12.90
2015,09,18,07,55,12.90
2015,09,18,07,56,12.90
2015,09,18,07,57,12.90
2015,09,18,07,58,12.90
2015,09,18,07,59,12.90
2015,09,18,08,00,12.90
2015,09,18,08,01,12.90
2015,09,18,08,02,12.90
2015,09,18,08,03,12.90
2015,09,18,08,04,12.90
2015,09,18,08,05,12.90
2015,09,18,08,06,12.90
2015,09,18,08,07,12.90
2015,09,18,08,08,12.90
2015,09,18,08,09,12.90
2015,09,18,08,10,12.90
2015,09,18,08,11,12.90
2015,09,18,08,12,12.90
2015,09,18,08,13,12.90
2015,09,18,08,14,12.90
2015,09,18,08,15,12.90
2015,09,18,08,16,12.90
2015,09,18,08,17,12.90
2015,09,18,08,18,12.90
2015,09,18,08,19,12.90
2015,09,18,08,20,12.90
2015,09,18,08,21,12.90
2015,09,18,08,22,12.90
2015,09,18,08,23,12.90
2015,09,18,08,24,12.90
2015,09,18,08,25,12.90
2015,09,18,08,26,12.90
2015,09,18,08,27,12.90
2015,09,18,08,28,12.90
2015,09,18,08,29,12.90
2015,09,18,08,30,12.90
2015,09,18,08,31,12.90
2015,09,18,08,32,12.90
2015,09,18,08,33,12.90
2015,09,18,08,34,13.00
2015,09,18,08,35,13.00
2015,09,18,08,36,13.00
2015,09,18,08,37,13.00
2015,09,18,08,38,13.00
2015,09,18,08,39,13.00
2015,09,18,08,40,13.00
2015,09,18,08,41,13.00
2015,09,18,08,42,12.90
2015,09,18,08,43,12.90
2015,09,18,08,44,12.90
2015,09,18,08,45,13.00
2015,09,18,08,46,13.00
2015,09,18,08,47,13.00
2015,09,18,08,48,13.00
2015,09,18,08,49,13.10
2015,09,18,08,50,13.10
2015,09,18,08,51,13.10
2015,09,18,08,52,13.10
2015,09,18,08,53,13.10
2015,09,18,08,54,13.10
2015,09,18,08,55,13.10
2015,09,18,08,56,13.10
2015,09,18,08,57,13.10
2015,09,18,08,58,13.10
2015,09,18,08,59,13.10
2015,09,18,09,00,13.10
2015,09,18,09,01,13.10
2015,09,18,09,02,13.10
2015,09,18,09,03,13.10
2015,09,18,09,04,13.10
2015,09,18,09,05,13.10
2015,09,18,09,06,13.10
2015,09,18,09,07,13.00
2015,09,18,09,08,13.00
2015,09,18,09,09,13.00
2015,09,18,09,10,13.10
2015,09,18,09,11,13.10
2015,09,18,09,12,13.10
2015,09,18,09,13,13.10
2015,09,18,09,14,13.10
2015,09,18,09,15,13.10
2015,09,18,09,16,13.10
2015,09,18,09,17,13.10
2015,09,18,09,18,13.10
2015,09,18,09,19,13.10
2015,09,18,09,20,13.10
2015,09,18,09,21,13.10
2015,09,18,09,22,13.10
2015,09,18,09,23,13.10
2015,09,18,09,24,13.10
2015,09,18,09,25,13.10
2015,09,18,09,26,13.00
2015,09,18,09,27,13.00
2015,09,18,09,28,13.10
2015,09,18,09,29,13.10
2015,09,18,09,30,13.10
2015,09,18,09,31,13.10
2015,09,18,09,32,13.10
2015,09,18,09,33,13.10
2015,09,18,09,34,13.10
2015,09,18,09,35,13.10
2015,09,18,09,36,13.10
2015,09,18,09,37,13.10
2015,09,18,09,38,13.10
2015,09,18,09,39,13.10
2015,09,18,09,40,13.10
2015,09,18,09,41,13.10
2015,09,18,09,42,13.10
2015,09,18,09,43,13.20
2015,09,18,09,44,13.20
2015,09,18,09,45,13.20
2015,09,18,09,46,13.20
2015,09,18,09,47,13.20
2015,09,18,09,48,13.20
2015,09,18,09,49,13.20
2015,09,18,09,50,13.20
2015,09,18,09,51,13.20
2015,09,18,09,52,13.20
2015,09,18,09,53,13.20
2015,09,18,09,54,13.20
2015,09,18,09,55,13.20
2015,09,18,09,56,13.20
2015,09,18,09,57,13.20
2015,09,18,09,58,13.20
2015,09,18,09,59,13.20
2015,09,18,10,00,13.20
2015,09,18,10,01,13.20
2015,09,18,10,02,13.20
2015,09,18,10,03,13.20
2015,09,18,10,04,13.20
2015,09,18,10,05,13.20
2015,09,18,10,06,13.20
2015,09,18,10,07,13.20
2015,09,18,10,08,13.20
2015,09,18,10,09,13.20
2015,09,18,10,10,13.20
2015,09,18,10,11,13.20
2015,09,18,10,12,13.20
2015,09,18,10,13,13.20
2015,09,18,10,14,13.30
2015,09,18,10,15,13.30
2015,09,18,10,16,13.30
2015,09,18,10,17,13.30
2015,09,18,10,18,13.40
2015,09,18,10,19,13.40
2015,09,18,10,20,13.40
2015,09,18,10,21,13.50
2015,09,18,10,22,13.50
2015,09,18,10,23,13.50
2015,09,18,10,24,13.60
2015,09,18,10,25,13.60
2015,09,18,10,26,13.60
2015,09,18,10,27,13.60
2015,09,18,10,28,13.60
2015,09,18,10,29,13.70
2015,09,18,10,30,13.70
2015,09,18,10,31,13.70
2015,09,18,10,32,13.70
2015,09,18,10,33,13.70
2015,09,18,10,34,13.70
2015,09,18,10,35,13.70
2015,09,18,10,36,13.70
2015,09,18,10,37,13.70
2015,09,18,10,38,13.70
2015,09,18,10,39,13.60
2015,09,18,10,40,13.60
2015,09,18,10,41,13.60
2015,09,18,10,42,13.60
2015,09,18,10,43,13.50
2015,09,18,10,44,13.50
2015,09,18,10,45,13.50
2015,09,18,10,46,13.50
2015,09,18,10,47,13.50
2015,09,18,10,48,13.50
2015,09,18,10,49,13.40
2015,09,18,10,50,13.40
2015,09,18,10,51,13.50
2015,09,18,10,52,13.40
2015,09,18,10,53,13.40
2015,09,18,10,54,13.40
2015,09,18,10,55,13.40
2015,09,18,10,56,13.40
2015,09,18,10,57,13.40
2015,09,18,10,58,13.40
2015,09,18,10,59,13.30
2015,09,18,11,00,13.30
2015,09,18,11,01,13.30
2015,09,18,11,02,13.30
2015,09,18,11,03,13.30
2015,09,18,11,04,13.30
2015,09,18,11,05,13.30
2015,09,18,11,06,13.20
2015,09,18,11,07,13.30
2015,09,18,11,08,13.30
2015,09,18,11,09,13.30
2015,09,18,11,10,13.30
2015,09,18,11,11,13.30
2015,09,18,11,12,13.30
2015,09,18,11,13,13.30
2015,09,18,11,14,13.30
2015,09,18,11,15,13.30
2015,09,18,11,16,13.30
2015,09,18,11,17,13.30
2015,09,18,11,18,13.30
2015,09,18,11,19,13.30
2015,09,18,11,20,13.30
2015,09,18,11,21,13.30
2015,09,18,11,22,13.30
2015,09,18,11,23,13.30
2015,09,18,11,24,13.30
2015,09,18,11,25,13.30
2015,09,18,11,26,13.30
2015,09,18,11,27,13.30
2015,09,18,11,28,13.30
2015,09,18,11,29,13.40
2015,09,18,11,30,13.40
2015,09,18,11,31,13.40
2015,09,18,11,32,13.30
2015,09,18,11,33,13.30
2015,09,18,11,34,13.30
2015,09,18,11,35,13.30
2015,09,18,11,36,13.40
2015,09,18,11,37,13.40
2015,09,18,11,38,13.40
2015,09,18,11,39,13.50
2015,09,18,11,40,13.60
2015,09,18,11,41,13.60
2015,09,18,11,42,13.60
2015,09,18,11,43,13.70
2015,09,18,11,44,13.70
2015,09,18,11,45,13.70
2015,09,18,12,23,14.50
2015,09,18,12,24,14.50
2015,09,18,12,25,14.40
2015,09,18,12,26,14.40
2015,09,18,12,27,14.40
2015,09,18,12,28,14.30
2015,09,18,12,29,14.30
2015,09,18,12,30,14.20
2015,09,18,12,31,14.20
2015,09,18,12,32,14.10
2015,09,18,12,33,14.10
2015,09,18,12,34,14.10
2015,09,18,12,35,14.10
2015,09,18,12,36,14.10
2015,09,18,12,37,14.00
2015,09,18,12,38,14.00
2015,09,18,12,39,14.00
2015,09,18,12,40,13.90
2015,09,18,12,41,13.90
2015,09,18,12,42,13.90
2015,09,18,12,43,13.90
2015,09,18,12,44,13.90
2015,09,18,12,45,13.90
2015,09,18,12,46,13.90
2015,09,18,12,47,13.90
2015,09,18,12,48,13.90
2015,09,18,12,49,13.90
2015,09,18,12,50,13.90
2015,09,18,12,51,13.80
2015,09,18,12,52,13.80
2015,09,18,12,53,13.80
2015,09,18,12,54,13.80
2015,09,18,12,55,13.80
2015,09,18,12,56,13.80
2015,09,18,12,57,13.80
2015,09,18,12,58,13.80
2015,09,18,12,59,13.80
2015,09,18,13,00,13.70
2015,09,18,13,01,13.70
2015,09,18,13,02,13.70
2015,09,18,13,03,13.70
2015,09,18,13,04,13.70
2015,09,18,13,05,13.70
2015,09,18,13,06,13.70
2015,09,18,13,07,13.70
2015,09,18,13,08,13.70
2015,09,18,13,09,13.70
2015,09,18,13,10,13.70
2015,09,18,13,11,13.70
2015,09,18,13,12,13.70
2015,09,18,13,13,13.70
2015,09,18,13,14,13.70
2015,09,18,13,15,13.70
2015,09,18,13,16,13.70
2015,09,18,13,17,13.70
2015,09,18,13,18,13.70
2015,09,18,13,19,13.70
2015,09,18,13,20,13.70
2015,09,18,13,21,13.70
2015,09,18,13,22,13.70
2015,09,18,13,23,13.70
2015,09,18,13,24,13.70
2015,09,18,13,25,13.70
2015,09,18,13,26,13.70
2015,09,18,13,27,13.70
2015,09,18,13,28,13.80
2015,09,18,13,29,13.80
2015,09,18,13,30,13.80
2015,09,18,13,31,13.80
2015,09,18,13,32,13.80
2015,09,18,13,33,13.70
2015,09,18,13,34,13.70
2015,09,18,13,35,13.70
2015,09,18,13,36,13.70
2015,09,18,13,37,13.70
2015,09,18,13,38,13.70
2015,09,18,13,39,13.70
2015,09,18,13,40,13.70
2015,09,18,13,41,13.70
2015,09,18,13,42,13.70
2015,09,18,13,43,13.70
2015,09,18,13,44,13.70
2015,09,18,13,45,13.70
2015,09,18,13,46,13.70
2015,09,18,13,47,13.70
2015,09,18,13,48,13.70
2015,09,18,13,49,13.70
2015,09,18,13,50,13.80
2015,09,18,13,51,13.80
2015,09,18,13,52,13.80
2015,09,18,13,53,13.80
2015,09,18,13,54,13.80
2015,09,18,13,55,13.80
2015,09,18,13,56,13.80
2015,09,18,13,57,13.80
2015,09,18,13,58,13.80
2015,09,18,13,59,13.80
2015,09,18,14,00,13.80
2015,09,18,14,01,13.80
2015,09,18,14,02,13.80
2015,09,18,14,03,13.90
2015,09,18,14,04,13.90
2015,09,18,14,05,13.90
2015,09,18,14,06,13.90
2015,09,18,14,07,13.90
2015,09,18,14,08,13.90
2015,09,18,14,09,13.90
2015,09,18,14,10,13.90
2015,09,18,14,11,13.90
2015,09,18,14,12,13.90
2015,09,18,14,13,13.90
2015,09,18,14,14,13.90
2015,09,18,14,15,13.90
2015,09,18,14,16,13.90
2015,09,18,14,17,13.90
2015,09,18,14,18,14.00
2015,09,18,14,19,14.00
2015,09,18,14,20,14.10
2015,09,18,14,21,14.10
2015,09,18,14,22,14.10
2015,09,18,14,23,14.10
2015,09,18,14,24,14.10
2015,09,18,14,25,14.10
2015,09,18,14,26,14.10
2015,09,18,14,27,14.10
2015,09,18,14,28,14.10
2015,09,18,14,29,14.10
2015,09,18,14,30,14.10
2015,09,18,14,31,14.10
2015,09,18,14,32,14.10
2015,09,18,14,33,14.10
2015,09,18,14,34,14.00
2015,09,18,14,35,14.00
2015,09,18,14,36,13.90
2015,09,18,14,37,13.90
2015,09,18,14,38,13.90
2015,09,18,14,39,13.90
2015,09,18,14,40,13.90
2015,09,18,14,41,13.90
2015,09,18,14,42,13.90
2015,09,18,14,43,13.90
2015,09,18,14,44,14.00
2015,09,18,14,45,14.00
2015,09,18,14,46,14.00
2015,09,18,14,47,14.00
2015,09,18,14,48,14.00
2015,09,18,14,49,14.00
2015,09,18,14,50,14.00
2015,09,18,14,51,14.00
2015,09,18,14,52,14.00
2015,09,18,14,53,14.10
2015,09,18,14,54,14.10
2015,09,18,14,55,14.10
2015,09,18,14,56,14.10
2015,09,18,14,57,14.10
2015,09,18,14,58,14.00
2015,09,18,14,59,14.00
2015,09,18,15,00,14.00
2015,09,18,15,01,14.00
2015,09,18,15,02,14.00
2015,09,18,15,03,14.00
2015,09,18,15,04,14.00
2015,09,18,15,05,14.00
2015,09,18,15,06,14.00
2015,09,18,15,07,14.00
2015,09,18,15,08,13.90
2015,09,18,15,09,13.90
2015,09,18,15,10,13.90
2015,09,18,15,11,13.90
2015,09,18,15,12,13.90
2015,09,18,15,13,13.90
2015,09,18,15,14,13.90
2015,09,18,15,15,13.90
2015,09,18,15,16,13.90
2015,09,18,15,17,13.90
2015,09,18,15,18,13.90
2015,09,18,15,19,13.90
2015,09,18,15,20,13.90
2015,09,18,15,21,13.90
2015,09,18,15,22,13.90
2015,09,18,15,23,13.90
2015,09,18,15,24,13.90
2015,09,18,15,25,13.90
2015,09,18,15,26,13.90
2015,09,18,15,27,13.90
2015,09,18,15,28,13.90
2015,09,18,15,29,13.90
2015,09,18,15,30,13.90
2015,09,18,15,31,13.90
2015,09,18,15,32,13.90
2015,09,18,15,33,13.90
2015,09,18,15,34,13.90
2015,09,18,15,35,13.90
2015,09,18,15,36,13.90
2015,09,18,15,37,13.90
2015,09,18,15,38,13.90
2015,09,18,15,39,13.90
2015,09,18,15,40,13.80
2015,09,18,15,41,13.80
2015,09,18,15,42,13.80
2015,09,18,15,43,13.80
2015,09,18,15,44,13.80
2015,09,18,15,45,13.80
2015,09,18,15,46,13.80
2015,09,18,15,47,13.80
2015,09,18,15,48,13.80
2015,09,18,15,49,13.80
2015,09,18,15,50,13.80
2015,09,18,15,51,13.80
2015,09,18,15,52,13.80
2015,09,18,15,53,13.80
2015,09,18,15,54,13.80
2015,09,18,15,55,13.80
2015,09,18,15,56,13.90
2015,09,18,15,57,13.80
2015,09,18,15,58,13.90
2015,09,18,15,59,13.90
2015,09,18,16,00,13.90
2015,09,18,16,01,13.80
2015,09,18,16,02,13.80
2015,09,18,16,03,13.80
2015,09,18,16,04,13.80
2015,09,18,16,05,13.80
2015,09,18,16,06,13.80
2015,09,18,16,07,13.80
2015,09,18,16,08,13.80
2015,09,18,16,09,13.80
2015,09,18,16,10,13.90
2015,09,18,16,11,13.80
2015,09,18,16,12,13.80
2015,09,18,16,13,13.80
2015,09,18,16,14,13.80
2015,09,18,16,15,13.80
2015,09,18,16,16,13.80
2015,09,18,16,17,13.80
2015,09,18,16,18,13.80
2015,09,18,16,19,13.80
2015,09,18,16,20,13.80
2015,09,18,16,21,13.80
2015,09,18,16,22,13.80
2015,09,18,16,23,13.80
2015,09,18,16,24,13.80
2015,09,18,16,25,13.80
2015,09,18,16,26,13.80
2015,09,18,16,27,13.80
2015,09,18,16,28,13.80
2015,09,18,16,29,13.80
2015,09,18,16,30,13.70
2015,09,18,16,31,13.70
2015,09,18,16,32,13.70
2015,09,18,16,33,13.70
2015,09,18,16,34,13.70
2015,09,18,16,35,13.70
2015,09,18,16,36,13.70
2015,09,18,16,37,13.70
2015,09,18,16,38,13.70
2015,09,18,16,39,13.70
2015,09,18,16,40,13.70
2015,09,18,16,41,13.70
2015,09,18,16,42,13.70
2015,09,18,16,43,13.70
2015,09,18,16,44,13.70
2015,09,18,16,45,13.70
2015,09,18,16,46,13.70
2015,09,18,16,47,13.70
2015,09,18,16,48,13.70
2015,09,18,16,49,13.70
2015,09,18,16,50,13.80
2015,09,18,16,51,13.80
2015,09,18,16,52,13.80
2015,09,18,16,53,13.80
2015,09,18,16,54,13.80
2015,09,18,16,55,13.80
2015,09,18,16,56,13.80
2015,09,18,16,57,13.80
2015,09,18,16,58,13.80
2015,09,18,16,59,13.80
2015,09,18,17,00,13.80
2015,09,18,17,01,13.80
2015,09,18,17,02,13.80
2015,09,18,17,03,13.80
2015,09,18,17,04,13.80
2015,09,18,17,05,13.80
2015,09,18,17,06,13.80
2015,09,18,17,07,13.70
2015,09,18,17,08,13.70
2015,09,18,17,09,13.70
2015,09,18,17,10,13.70
2015,09,18,17,11,13.80
2015,09,18,17,12,13.70
2015,09,18,17,13,13.70
2015,09,18,17,14,13.70
2015,09,18,17,15,13.80
2015,09,18,17,16,13.80
2015,09,18,17,17,13.80
2015,09,18,17,18,13.80
2015,09,18,17,19,13.80
2015,09,18,17,20,13.80
2015,09,18,17,21,13.70
2015,09,18,17,22,13.80
2015,09,18,17,23,13.80
2015,09,18,17,24,13.70
2015,09,18,17,25,13.80
2015,09,18,17,26,13.70
2015,09,18,17,27,13.70
2015,09,18,17,28,13.80
2015,09,18,17,29,13.80
2015,09,18,17,30,13.80
2015,09,18,17,31,13.80
2015,09,18,17,32,13.80
2015,09,18,17,33,13.80
2015,09,18,17,34,13.80
2015,09,18,17,35,13.80
2015,09,18,17,36,13.80
2015,09,18,17,37,13.80
2015,09,18,17,38,13.80
2015,09,18,17,39,13.80
2015,09,18,17,40,13.80
2015,09,18,17,41,13.80
2015,09,18,17,42,13.80
2015,09,18,17,43,13.80
2015,09,18,17,44,13.80
2015,09,18,17,45,13.80
2015,09,18,17,46,13.80
2015,09,18,17,47,13.80
2015,09,18,17,48,13.80
2015,09,18,17,49,13.80
2015,09,18,17,50,13.80
2015,09,18,17,51,13.80
2015,09,18,17,52,13.80
2015,09,18,17,53,13.80
2015,09,18,17,54,13.80
2015,09,18,17,55,13.80
2015,09,18,17,56,13.80
2015,09,18,17,57,13.80
2015,09,18,17,58,13.80
2015,09,18,17,59,13.80
2015,09,18,18,00,13.80
2015,09,18,18,01,13.80
2015,09,18,18,02,13.70
2015,09,18,18,03,13.70
2015,09,18,18,04,13.70
2015,09,18,18,05,13.70
2015,09,18,18,06,13.70
2015,09,18,18,07,13.70
2015,09,18,18,08,13.80
2015,09,18,18,09,13.70
2015,09,18,18,10,13.70
2015,09,18,18,11,13.70
2015,09,18,18,12,13.70
2015,09,18,18,13,13.70
2015,09,18,18,14,13.70
2015,09,18,18,15,13.70
2015,09,18,18,16,13.70
2015,09,18,18,17,13.70
2015,09,18,18,18,13.70
2015,09,18,18,19,13.70
2015,09,18,18,20,13.70
2015,09,18,18,21,13.70
2015,09,18,18,22,13.70
2015,09,18,18,23,13.70
2015,09,18,18,24,13.70
2015,09,18,18,25,13.60
2015,09,18,18,26,13.60
2015,09,18,18,27,13.60
2015,09,18,18,28,13.60
2015,09,18,18,29,13.60
2015,09,18,18,30,13.60
2015,09,18,18,31,13.60
2015,09,18,18,32,13.60
2015,09,18,18,33,13.60
2015,09,18,18,34,13.60
2015,09,18,18,35,13.60
2015,09,18,18,36,13.60
2015,09,18,18,37,13.60
2015,09,18,18,38,13.60
2015,09,18,18,39,13.60
2015,09,18,18,40,13.60
2015,09,18,18,41,13.60
2015,09,18,18,42,13.60
2015,09,18,18,43,13.60
2015,09,18,18,44,13.60
2015,09,18,18,45,13.60
2015,09,18,18,46,13.60
2015,09,18,18,47,13.60
2015,09,18,18,48,13.60
2015,09,18,18,49,13.60
2015,09,18,18,50,13.50
2015,09,18,18,51,13.60